TGW250 WSSS-WAHS

Flight info

Callsign TGW250
Flight time 1h 31m
Altitude 35000
Route IDBUD1A IDBUD T24 SURGA M635 RAFIS RAFIS1H
Aircraft A320/M-SDE3FGHIRWY/LB1

Departure

Time 2026-04-18 10:52
Airport Singapore Changi Airport (WSSS)

Arrival

Time 2026-04-18 12:23
Airport Jenderal Ahmad Yani Airport (WAHS)
Time Latitude Longitude Altitude Speed Heading
2026-04-18 10:31 1.36235 103.99172 30 ft 0 kts 130°
2026-04-18 10:31 1.36232 103.99175 30 ft 0 kts 131°
2026-04-18 10:38 1.36240 103.99167 30 ft 3 kts 131°
2026-04-18 10:38 1.36253 103.99152 30 ft 3 kts 132°
2026-04-18 10:38 1.36267 103.99137 30 ft 3 kts 135°
2026-04-18 10:39 1.36282 103.99123 30 ft 3 kts 141°
2026-04-18 10:39 1.36296 103.99110 30 ft 3 kts 115°
2026-04-18 10:39 1.36300 103.99092 30 ft 3 kts 80°
2026-04-18 10:39 1.36297 103.99081 30 ft 0 kts 73°
2026-04-18 10:40 1.36301 103.99088 30 ft 3 kts 59°
2026-04-18 10:40 1.36317 103.99099 30 ft 3 kts 30°
2026-04-18 10:40 1.36334 103.99107 30 ft 3 kts 22°
2026-04-18 10:40 1.36354 103.99114 30 ft 3 kts 21°
2026-04-18 10:41 1.36368 103.99120 30 ft 1 kts 23°
2026-04-18 10:41 1.36369 103.99121 30 ft 0 kts 23°
2026-04-18 10:44 1.36399 103.99133 30 ft 11 kts 23°
2026-04-18 10:44 1.36464 103.99184 30 ft 13 kts 52°
2026-04-18 10:44 1.36525 103.99264 30 ft 16 kts 53°
2026-04-18 10:45 1.36590 103.99360 30 ft 17 kts 78°
2026-04-18 10:45 1.36549 103.99475 30 ft 19 kts 113°
2026-04-18 10:45 1.36494 103.99604 30 ft 21 kts 113°
2026-04-18 10:45 1.36435 103.99740 30 ft 14 kts 115°
2026-04-18 10:46 1.36375 103.99774 30 ft 11 kts 193°
2026-04-18 10:46 1.36297 103.99742 30 ft 13 kts 202°
2026-04-18 10:46 1.36205 103.99704 30 ft 15 kts 202°
2026-04-18 10:46 1.36099 103.99659 30 ft 18 kts 203°
2026-04-18 10:47 1.35927 103.99586 30 ft 32 kts 202°
2026-04-18 10:47 1.35762 103.99517 30 ft 26 kts 202°
2026-04-18 10:47 1.35587 103.99443 30 ft 28 kts 203°
2026-04-18 10:47 1.35406 103.99366 30 ft 30 kts 202°
2026-04-18 10:48 1.35210 103.99284 30 ft 31 kts 202°
2026-04-18 10:48 1.35006 103.99198 30 ft 32 kts 202°
2026-04-18 10:48 1.34795 103.99109 30 ft 34 kts 203°
2026-04-18 10:48 1.34575 103.99016 30 ft 35 kts 203°
2026-04-18 10:49 1.34347 103.98921 30 ft 36 kts 202°
2026-04-18 10:49 1.34114 103.98823 30 ft 37 kts 203°
2026-04-18 10:49 1.33879 103.98724 30 ft 38 kts 203°
2026-04-18 10:49 1.33658 103.98631 30 ft 16 kts 202°
2026-04-18 10:50 1.33587 103.98654 30 ft 9 kts 118°
2026-04-18 10:50 1.33585 103.98658 30 ft 0 kts 113°
2026-04-18 10:50 1.33569 103.98695 30 ft 13 kts 114°
2026-04-18 10:51 1.33574 103.98784 30 ft 15 kts 41°
2026-04-18 10:51 1.33708 103.98847 30 ft 43 kts 22°
2026-04-18 10:51 1.34205 103.99058 31 ft 109 kts 23°
2026-04-18 10:51 1.35061 103.99420 31 ft 157 kts 23°
2026-04-18 10:52 1.36157 103.99886 333 ft 174 kts 23°
2026-04-18 10:52 1.37269 104.00358 1029 ft 172 kts 23°
2026-04-18 10:52 1.38366 104.00820 1714 ft 171 kts 22°
2026-04-18 10:52 1.39520 104.01303 2134 ft 191 kts 22°
2026-04-18 10:53 1.40815 104.01847 2485 ft 213 kts 23°
2026-04-18 10:53 1.42218 104.02442 3047 ft 224 kts 23°
2026-04-18 10:53 1.43657 104.03134 3544 ft 237 kts 37°
2026-04-18 10:53 1.44699 104.04431 4074 ft 250 kts 66°
2026-04-18 10:54 1.45034 104.06195 4540 ft 268 kts 87°
2026-04-18 10:54 1.45043 104.08080 5299 ft 274 kts 90°
2026-04-18 10:54 1.44999 104.10004 6099 ft 279 kts 95°
2026-04-18 10:54 1.44390 104.11852 6843 ft 285 kts 122°
2026-04-18 10:55 1.43195 104.13443 7603 ft 289 kts 129°
2026-04-18 10:55 1.41916 104.14974 8337 ft 292 kts 130°
2026-04-18 10:55 1.40597 104.16539 9047 ft 296 kts 130°
2026-04-18 10:55 1.39252 104.18112 9730 ft 300 kts 134°
2026-04-18 10:56 1.37568 104.19366 10277 ft 309 kts 152°
2026-04-18 10:56 1.35598 104.20394 10431 ft 332 kts 153°
2026-04-18 10:56 1.33463 104.21452 10549 ft 352 kts 154°
2026-04-18 10:56 1.31204 104.22549 10702 ft 370 kts 154°
2026-04-18 10:57 1.28858 104.23686 11133 ft 377 kts 154°
2026-04-18 10:57 1.26490 104.24841 11687 ft 381 kts 154°
2026-04-18 10:57 1.24099 104.26018 12273 ft 383 kts 154°
2026-04-18 10:57 1.21704 104.27204 12848 ft 386 kts 154°
2026-04-18 10:58 1.19289 104.28403 13408 ft 389 kts 154°
2026-04-18 10:58 1.16859 104.29613 13960 ft 392 kts 154°
2026-04-18 10:58 1.14447 104.30815 14478 ft 395 kts 154°
2026-04-18 10:58 1.11976 104.32046 15022 ft 398 kts 154°
2026-04-18 10:59 1.09488 104.33285 15551 ft 401 kts 154°
2026-04-18 10:59 1.06984 104.34532 16078 ft 404 kts 153°
2026-04-18 10:59 1.04457 104.35787 16606 ft 407 kts 154°
2026-04-18 10:59 1.01918 104.37048 17130 ft 410 kts 153°
2026-04-18 11:00 0.99356 104.38321 17657 ft 412 kts 153°
2026-04-18 11:00 0.96774 104.39605 18169 ft 415 kts 153°
2026-04-18 11:00 0.94177 104.40896 18651 ft 419 kts 153°
2026-04-18 11:00 0.91757 104.42451 19096 ft 421 kts 139°
2026-04-18 11:01 0.89770 104.44601 19543 ft 424 kts 129°
2026-04-18 11:01 0.87938 104.46849 19971 ft 427 kts 129°
2026-04-18 11:01 0.86112 104.49121 20379 ft 429 kts 128°
2026-04-18 11:02 0.82361 104.53800 21173 ft 434 kts 128°
2026-04-18 11:02 0.80463 104.56159 21540 ft 436 kts 128°
2026-04-18 11:02 0.78551 104.58525 21888 ft 439 kts 129°
2026-04-18 11:02 0.76623 104.60888 22218 ft 441 kts 129°
2026-04-18 11:03 0.74675 104.63271 22553 ft 443 kts 129°
2026-04-18 11:03 0.72728 104.65661 22859 ft 445 kts 129°
2026-04-18 11:03 0.70801 104.68036 23147 ft 447 kts 129°
2026-04-18 11:03 0.68841 104.70460 23435 ft 449 kts 128°
2026-04-18 11:04 0.66879 104.72891 23733 ft 450 kts 128°
2026-04-18 11:04 0.64909 104.75332 24000 ft 452 kts 128°
2026-04-18 11:04 0.62932 104.77781 24261 ft 454 kts 128°
2026-04-18 11:04 0.60944 104.80244 24523 ft 456 kts 128°
2026-04-18 11:05 0.58946 104.82716 24779 ft 457 kts 128°
2026-04-18 11:05 0.56942 104.85193 25018 ft 459 kts 128°
2026-04-18 11:05 0.54928 104.87676 25256 ft 461 kts 129°
2026-04-18 11:05 0.52904 104.90175 25499 ft 462 kts 128°
2026-04-18 11:06 0.50887 104.92670 25722 ft 464 kts 128°
2026-04-18 11:06 0.48880 104.95154 25941 ft 465 kts 128°
2026-04-18 11:06 0.46844 104.97671 26141 ft 467 kts 129°
2026-04-18 11:06 0.44795 105.00202 26353 ft 469 kts 129°
2026-04-18 11:07 0.42742 105.02738 26564 ft 470 kts 128°
2026-04-18 11:07 0.40682 105.05285 26820 ft 470 kts 129°
2026-04-18 11:07 0.38629 105.07820 27114 ft 470 kts 129°
2026-04-18 11:07 0.36569 105.10364 27419 ft 469 kts 129°
2026-04-18 11:08 0.34519 105.12898 27718 ft 469 kts 129°
2026-04-18 11:08 0.32475 105.15427 28033 ft 469 kts 129°
2026-04-18 11:08 0.30425 105.17966 28359 ft 468 kts 129°
2026-04-18 11:08 0.28384 105.20493 28695 ft 468 kts 129°
2026-04-18 11:09 0.26337 105.23019 29014 ft 468 kts 129°
2026-04-18 11:09 0.24290 105.25543 29346 ft 467 kts 129°
2026-04-18 11:09 0.22250 105.28060 29683 ft 466 kts 129°
2026-04-18 11:09 0.20235 105.30554 30018 ft 466 kts 129°
2026-04-18 11:10 0.18200 105.33071 30343 ft 466 kts 129°
2026-04-18 11:10 0.16165 105.35585 30685 ft 465 kts 129°
2026-04-18 11:10 0.14129 105.38094 31028 ft 464 kts 129°
2026-04-18 11:10 0.12086 105.40612 31352 ft 465 kts 129°
2026-04-18 11:11 0.10052 105.43122 31692 ft 464 kts 129°
2026-04-18 11:11 0.08028 105.45626 32042 ft 463 kts 129°
2026-04-18 11:11 0.05792 105.47930 32376 ft 462 kts 142°
2026-04-18 11:11 0.03174 105.49787 32691 ft 462 kts 146°
2026-04-18 11:12 0.00521 105.51609 33027 ft 461 kts 146°
2026-04-18 11:12 -0.02093 105.53394 33365 ft 461 kts 146°
2026-04-18 11:12 -0.04736 105.55194 33703 ft 460 kts 146°
2026-04-18 11:12 -0.07383 105.56993 34021 ft 460 kts 146°
2026-04-18 11:13 -0.10023 105.58789 34354 ft 459 kts 146°
2026-04-18 11:13 -0.12666 105.60589 34674 ft 459 kts 146°
2026-04-18 11:13 -0.15306 105.62387 34808 ft 460 kts 146°
2026-04-18 11:13 -0.17951 105.64189 34845 ft 465 kts 146°
2026-04-18 11:14 -0.23332 105.67875 34842 ft 470 kts 146°
2026-04-18 11:14 -0.28725 105.71564 34841 ft 470 kts 146°
2026-04-18 11:15 -0.34125 105.75250 34841 ft 470 kts 146°
2026-04-18 11:15 -0.39533 105.78937 34842 ft 470 kts 146°
2026-04-18 11:16 -0.44898 105.82598 34844 ft 470 kts 146°
2026-04-18 11:16 -0.50304 105.86291 34846 ft 470 kts 146°
2026-04-18 11:17 -0.55699 105.89984 34847 ft 470 kts 146°
2026-04-18 11:17 -0.61083 105.93665 34848 ft 470 kts 146°
2026-04-18 11:18 -0.66482 105.97351 34848 ft 470 kts 146°
2026-04-18 11:18 -0.71883 106.01037 34850 ft 470 kts 146°
2026-04-18 11:19 -0.77294 106.04723 34849 ft 470 kts 146°
2026-04-18 11:19 -0.82665 106.08396 34853 ft 471 kts 146°
2026-04-18 11:20 -0.88061 106.12088 34857 ft 470 kts 146°
2026-04-18 11:20 -0.93460 106.15770 34858 ft 470 kts 146°
2026-04-18 11:21 -0.98862 106.19458 34859 ft 470 kts 146°
2026-04-18 11:21 -1.04261 106.23154 34861 ft 470 kts 146°
2026-04-18 11:22 -1.09657 106.26842 34862 ft 470 kts 146°
2026-04-18 11:22 -1.15030 106.30511 34864 ft 470 kts 146°
2026-04-18 11:23 -1.20419 106.34194 34863 ft 470 kts 146°
2026-04-18 11:23 -1.25818 106.37882 34862 ft 469 kts 146°
2026-04-18 11:24 -1.31210 106.41569 34862 ft 469 kts 146°
2026-04-18 11:24 -1.36602 106.45254 34863 ft 469 kts 146°
2026-04-18 11:25 -1.41994 106.48934 34864 ft 469 kts 146°
2026-04-18 11:25 -1.47343 106.52587 34865 ft 470 kts 146°
2026-04-18 11:26 -1.52746 106.56274 34865 ft 469 kts 146°
2026-04-18 11:26 -1.58128 106.59959 34864 ft 469 kts 146°
2026-04-18 11:27 -1.63513 106.63647 34862 ft 469 kts 146°
2026-04-18 11:27 -1.68901 106.67326 34846 ft 470 kts 146°
2026-04-18 11:28 -1.74273 106.70992 34832 ft 471 kts 146°
2026-04-18 11:28 -1.79691 106.74703 34825 ft 473 kts 146°
2026-04-18 11:29 -1.85118 106.78418 34833 ft 474 kts 146°
2026-04-18 11:29 -1.90564 106.82139 34840 ft 475 kts 146°
2026-04-18 11:30 -1.96014 106.85863 34846 ft 475 kts 146°
2026-04-18 11:30 -2.01473 106.89601 34854 ft 476 kts 146°
2026-04-18 11:31 -2.06901 106.93312 34863 ft 476 kts 146°
2026-04-18 11:31 -2.12366 106.97044 34868 ft 476 kts 146°
2026-04-18 11:32 -2.17838 107.00784 34869 ft 476 kts 146°
2026-04-18 11:32 -2.23296 107.04517 34871 ft 476 kts 146°
2026-04-18 11:33 -2.28757 107.08262 34869 ft 476 kts 146°
2026-04-18 11:33 -2.34222 107.11999 34870 ft 476 kts 146°
2026-04-18 11:34 -2.39683 107.15735 34867 ft 476 kts 146°
2026-04-18 11:34 -2.45103 107.19445 34867 ft 476 kts 146°
2026-04-18 11:35 -2.50575 107.23185 34867 ft 476 kts 146°
2026-04-18 11:35 -2.56040 107.26917 34866 ft 476 kts 146°
2026-04-18 11:36 -2.61500 107.30660 34866 ft 476 kts 146°
2026-04-18 11:36 -2.66956 107.34404 34866 ft 476 kts 146°
2026-04-18 11:37 -2.72428 107.38149 34867 ft 476 kts 146°
2026-04-18 11:37 -2.77890 107.41891 34872 ft 476 kts 146°
2026-04-18 11:38 -2.83324 107.45614 34871 ft 476 kts 146°
2026-04-18 11:38 -2.88794 107.49357 34874 ft 476 kts 146°
2026-04-18 11:39 -2.94254 107.53094 34874 ft 476 kts 146°
2026-04-18 11:39 -2.99684 107.56817 34876 ft 476 kts 146°
2026-04-18 11:40 -3.05142 107.60558 34872 ft 475 kts 146°
2026-04-18 11:40 -3.10592 107.64291 34872 ft 475 kts 146°
2026-04-18 11:41 -3.16051 107.68039 34868 ft 475 kts 146°
2026-04-18 11:41 -3.21497 107.71769 34868 ft 475 kts 146°
2026-04-18 11:42 -3.26914 107.75479 34871 ft 475 kts 146°
2026-04-18 11:42 -3.32376 107.79220 34869 ft 475 kts 146°
2026-04-18 11:43 -3.37817 107.82952 34871 ft 475 kts 146°
2026-04-18 11:43 -3.43264 107.86690 34871 ft 475 kts 146°
2026-04-18 11:44 -3.48712 107.90423 34873 ft 475 kts 146°
2026-04-18 11:44 -3.54130 107.94136 34867 ft 475 kts 146°
2026-04-18 11:45 -3.59576 107.97871 34865 ft 475 kts 146°
2026-04-18 11:45 -3.65031 108.01614 34866 ft 475 kts 146°
2026-04-18 11:46 -3.69565 108.04725 34865 ft 475 kts 146°
2026-04-18 11:46 -3.75901 108.09077 34864 ft 475 kts 146°
2026-04-18 11:47 -3.80471 108.12209 34864 ft 475 kts 146°
2026-04-18 11:47 -3.86804 108.16556 34861 ft 475 kts 146°
2026-04-18 11:48 -3.91328 108.19664 34861 ft 475 kts 146°
2026-04-18 11:48 -3.97651 108.24012 34861 ft 474 kts 146°
2026-04-18 11:49 -4.02210 108.27153 34860 ft 474 kts 146°
2026-04-18 11:49 -4.07642 108.30895 34866 ft 474 kts 146°
2026-04-18 11:50 -4.13046 108.34604 34874 ft 474 kts 146°
2026-04-18 11:50 -4.18498 108.38342 34876 ft 474 kts 146°
2026-04-18 11:51 -4.23941 108.42078 34881 ft 475 kts 146°
2026-04-18 11:51 -4.29389 108.45825 34881 ft 475 kts 146°
2026-04-18 11:52 -4.34824 108.49568 34880 ft 474 kts 146°
2026-04-18 11:52 -4.40234 108.53288 34881 ft 474 kts 146°
2026-04-18 11:53 -4.45671 108.57018 34879 ft 474 kts 146°
2026-04-18 11:53 -4.51096 108.60755 34878 ft 473 kts 146°
2026-04-18 11:54 -4.56528 108.64500 34878 ft 473 kts 146°
2026-04-18 11:54 -4.61918 108.68204 34879 ft 473 kts 146°
2026-04-18 11:55 -4.67347 108.71939 34880 ft 473 kts 146°
2026-04-18 11:55 -4.72767 108.75675 34875 ft 472 kts 146°
2026-04-18 11:56 -4.78179 108.79404 34874 ft 472 kts 146°
2026-04-18 11:56 -4.83596 108.83135 34871 ft 472 kts 146°
2026-04-18 11:57 -4.89007 108.86864 34874 ft 472 kts 146°
2026-04-18 11:57 -4.94387 108.90568 34873 ft 472 kts 146°
2026-04-18 11:58 -4.99804 108.94301 34875 ft 473 kts 146°
2026-04-18 11:58 -5.05228 108.98035 34876 ft 472 kts 146°
2026-04-18 11:59 -5.10638 109.01776 34873 ft 472 kts 146°
2026-04-18 11:59 -5.16052 109.05512 34874 ft 472 kts 146°
2026-04-18 12:00 -5.21431 109.09218 34875 ft 472 kts 146°
2026-04-18 12:00 -5.26844 109.12951 34872 ft 472 kts 146°
2026-04-18 12:01 -5.34949 109.18546 34872 ft 472 kts 145°
2026-04-18 12:02 -5.40323 109.22261 34873 ft 472 kts 146°
2026-04-18 12:02 -5.45736 109.25998 34876 ft 472 kts 146°
2026-04-18 12:03 -5.51149 109.29735 34873 ft 472 kts 146°
2026-04-18 12:03 -5.56563 109.33477 34872 ft 472 kts 146°
2026-04-18 12:04 -5.61966 109.37214 34872 ft 472 kts 146°
2026-04-18 12:04 -5.67380 109.40950 34872 ft 472 kts 146°
2026-04-18 12:05 -5.72748 109.44660 34877 ft 472 kts 145°
2026-04-18 12:05 -5.78161 109.48402 34894 ft 471 kts 146°
2026-04-18 12:05 -5.80856 109.50267 34595 ft 469 kts 145°
2026-04-18 12:06 -5.83544 109.52127 33606 ft 472 kts 145°
2026-04-18 12:06 -5.86253 109.54004 32581 ft 474 kts 145°
2026-04-18 12:06 -5.88977 109.55891 31499 ft 477 kts 145°
2026-04-18 12:06 -5.91721 109.57789 30380 ft 480 kts 145°
2026-04-18 12:07 -5.94481 109.59698 29188 ft 482 kts 145°
2026-04-18 12:07 -5.97212 109.61586 27938 ft 484 kts 144°
2026-04-18 12:07 -5.99991 109.63506 26564 ft 487 kts 144°
2026-04-18 12:07 -6.02794 109.65442 25090 ft 490 kts 144°
2026-04-18 12:08 -6.05594 109.67374 23406 ft 483 kts 144°
2026-04-18 12:08 -6.08329 109.69265 21775 ft 472 kts 143°
2026-04-18 12:08 -6.10988 109.71112 20575 ft 455 kts 143°
2026-04-18 12:08 -6.13522 109.72865 19717 ft 431 kts 143°
2026-04-18 12:09 -6.15948 109.74538 18853 ft 418 kts 143°
2026-04-18 12:09 -6.18341 109.76194 17987 ft 418 kts 143°
2026-04-18 12:09 -6.20727 109.77854 17128 ft 417 kts 143°
2026-04-18 12:09 -6.23109 109.79511 16260 ft 416 kts 143°
2026-04-18 12:10 -6.25452 109.81138 15418 ft 415 kts 143°
2026-04-18 12:10 -6.27820 109.82782 14592 ft 413 kts 144°
2026-04-18 12:10 -6.30186 109.84421 13785 ft 412 kts 144°
2026-04-18 12:10 -6.32546 109.86053 13002 ft 410 kts 144°
2026-04-18 12:11 -6.34887 109.87675 12250 ft 407 kts 144°
2026-04-18 12:11 -6.37204 109.89285 11518 ft 404 kts 144°
2026-04-18 12:11 -6.39494 109.90873 11084 ft 392 kts 144°
2026-04-18 12:11 -6.41655 109.92367 10952 ft 372 kts 144°
2026-04-18 12:12 -6.43735 109.93805 10823 ft 354 kts 144°
2026-04-18 12:12 -6.45716 109.95175 10700 ft 339 kts 144°
2026-04-18 12:12 -6.47620 109.96493 10568 ft 325 kts 144°
2026-04-18 12:12 -6.49446 109.97761 10449 ft 313 kts 144°
2026-04-18 12:13 -6.51205 109.98985 10274 ft 304 kts 144°
2026-04-18 12:13 -6.52927 110.00184 10025 ft 298 kts 144°
2026-04-18 12:13 -6.54617 110.01360 9867 ft 294 kts 144°
2026-04-18 12:13 -6.56295 110.02530 9751 ft 294 kts 144°
2026-04-18 12:14 -6.57954 110.03685 9627 ft 293 kts 144°
2026-04-18 12:14 -6.59632 110.04850 9454 ft 294 kts 144°
2026-04-18 12:14 -6.61328 110.06024 8965 ft 298 kts 144°
2026-04-18 12:14 -6.63021 110.07196 8670 ft 294 kts 144°
2026-04-18 12:15 -6.64702 110.08364 8284 ft 293 kts 144°
2026-04-18 12:15 -6.66373 110.09526 7849 ft 289 kts 144°
2026-04-18 12:15 -6.68017 110.10669 7218 ft 287 kts 144°
2026-04-18 12:15 -6.69652 110.11803 6580 ft 284 kts 144°
2026-04-18 12:16 -6.71271 110.12926 5961 ft 281 kts 144°
2026-04-18 12:16 -6.72851 110.14021 5351 ft 278 kts 144°
2026-04-18 12:16 -6.74433 110.15120 4755 ft 275 kts 144°
2026-04-18 12:16 -6.75999 110.16210 4149 ft 271 kts 144°
2026-04-18 12:17 -6.77534 110.17278 3655 ft 264 kts 144°
2026-04-18 12:17 -6.78984 110.18284 3570 ft 242 kts 144°
2026-04-18 12:17 -6.80303 110.19197 3518 ft 220 kts 144°
2026-04-18 12:17 -6.81532 110.20049 3441 ft 206 kts 144°
2026-04-18 12:18 -6.82685 110.20849 3364 ft 199 kts 144°
2026-04-18 12:18 -6.83763 110.21708 3271 ft 197 kts 134°
2026-04-18 12:18 -6.84685 110.22682 3217 ft 186 kts 130°
2026-04-18 12:18 -6.85504 110.23630 3133 ft 173 kts 129°
2026-04-18 12:19 -6.86260 110.24519 2971 ft 167 kts 129°
2026-04-18 12:19 -6.87003 110.25398 2778 ft 163 kts 129°
2026-04-18 12:19 -6.87732 110.26261 2569 ft 159 kts 130°
2026-04-18 12:19 -6.88416 110.27071 2383 ft 147 kts 130°
2026-04-18 12:20 -6.89070 110.27845 2185 ft 143 kts 131°
2026-04-18 12:20 -6.89711 110.28605 1996 ft 142 kts 131°
2026-04-18 12:20 -6.90352 110.29364 1804 ft 142 kts 131°
2026-04-18 12:20 -6.90994 110.30124 1620 ft 143 kts 131°
2026-04-18 12:21 -6.91636 110.30884 1428 ft 142 kts 131°
2026-04-18 12:21 -6.92268 110.31633 1252 ft 143 kts 131°
2026-04-18 12:21 -6.92911 110.32395 1052 ft 143 kts 131°
2026-04-18 12:21 -6.93555 110.33158 863 ft 143 kts 131°
2026-04-18 12:22 -6.94199 110.33921 672 ft 143 kts 131°
2026-04-18 12:22 -6.94841 110.34682 485 ft 143 kts 131°
2026-04-18 12:22 -6.95484 110.35444 299 ft 142 kts 131°
2026-04-18 12:22 -6.96122 110.36200 103 ft 142 kts 131°
2026-04-18 12:23 -6.96740 110.36934 16 ft 126 kts 131°
2026-04-18 12:23 -6.97219 110.37503 13 ft 86 kts 131°
2026-04-18 12:23 -6.97499 110.37833 15 ft 50 kts 130°
2026-04-18 12:23 -6.97660 110.37919 14 ft 21 kts 178°
2026-04-18 12:24 -6.97753 110.37928 14 ft 10 kts 174°
2026-04-18 12:24 -6.97781 110.37888 14 ft 9 kts 271°
2026-04-18 12:24 -6.97778 110.37834 14 ft 7 kts 274°
2026-04-18 12:24 -6.97775 110.37799 14 ft 2 kts 275°
2026-04-18 12:25 -6.97780 110.37780 14 ft 3 kts 230°
2026-04-18 12:25 -6.97808 110.37776 14 ft 6 kts 185°
2026-04-18 12:25 -6.97817 110.37775 14 ft 0 kts 184°